HG5PBP-13 Weather Reports


time (UTC)temp
C
wind
direction
speed
KPH
gust
KPH
rain 1hr
cm
rain 24hr
cm
rain mn
cm
humidity
%
barometer
mb
20260507210438 12 199 4.8 6.4 0.00 0.08 0.08 8 1013.6
20260507205938 12 181 3.2 6.4 0.00 0.08 0.08 8 1013.8
20260507205438 12 206 4.8 6.4 0.00 0.08 0.08 8 1013.8
20260507204938 12 257 1.6 3.2 0.00 0.08 0.08 8 1013.7
20260507204438 12 232 1.6 3.2 0.00 0.08 0.08 8 1013.6
20260507203938 12 259 4.8 8.0 0.00 0.08 0.08 8 1013.5
20260507203438 12 217 3.2 8.0 0.00 0.08 0.08 8 1013.6
20260507202938 12 197 3.2 4.8 0.00 0.08 0.08 8 1013.8
20260507202438 12 281 3.2 4.8 0.00 0.08 0.08 8 1013.7
20260507201938 12 226 1.6 6.4 0.00 0.08 0.08 8 1013.6
20260507201438 12 216 1.6 6.4 0.00 0.08 0.08 8 1013.6
20260507200938 12 229 0.0 8.0 0.00 0.08 0.08 8 1013.4
20260507200438 12 251 0.0 4.8 0.00 0.08 0.08 8 1013.4
20260507195938 12 190 1.6 6.4 0.00 0.13 0.08 8 1013.4
20260507195438 12 226 0.0 8.0 0.00 0.13 0.08 8 1013.4
20260507194938 12 274 3.2 8.0 0.00 0.13 0.08 8 1013.5
20260507194438 12 233 4.8 8.0 0.00 0.13 0.08 8 1013.4
20260507193938 12 148 3.2 9.7 0.00 0.13 0.08 8 1013.5
20260507193438 12 242 1.6 9.7 0.00 0.13 0.08 8 1013.6
20260507192938 12 239 0.0 4.8 0.00 0.13 0.08 8 1013.4
20260507192438 12 148 4.8 8.0 0.00 0.13 0.08 8 1013.3
20260507191938 12 253 1.6 4.8 0.00 0.13 0.08 8 1013.2
20260507191438 12 144 1.6 6.4 0.00 0.13 0.08 8 1013.6
20260507190938 12 210 3.2 4.8 0.00 0.13 0.08 8 1013.5
20260507190438 12 231 0.0 6.4 0.00 0.13 0.08 8 1013.5
20260507185938 12 241 1.6 4.8 0.00 0.15 0.08 8 1013.2
20260507185439 12 237 3.2 4.8 0.00 0.15 0.08 8 1013.3
20260507184937 12 252 1.6 4.8 0.00 0.15 0.08 8 1013.4
20260507184437 12 260 3.2 6.4 0.00 0.15 0.08 8 1013.4
20260507183937 12 272 0.0 3.2 0.00 0.15 0.08 8 1013.2
20260507183437 12 227 1.6 4.8 0.00 0.15 0.08 8 1013.1
20260507182937 12 276 0.0 4.8 0.00 0.15 0.08 8 1013.1
20260507182437 12 229 0.0 6.4 0.00 0.15 0.08 8 1013.1
20260507181937 12 221 1.6 1.6 0.00 0.15 0.08 8 1012.9
20260507181437 12 231 0.0 1.6 0.00 0.15 0.08 8 1012.8
20260507180937 12 223 0.0 1.6 0.00 0.15 0.08 8 1012.8
20260507180437 12 185 3.2 6.4 0.00 0.15 0.08 8 1012.8
20260507175937 12 183 1.6 6.4 0.00 0.15 0.08 8 1012.4
20260507175437 12 187 3.2 9.7 0.00 0.15 0.08 8 1012.4
20260507174937 12 163 3.2 4.8 0.00 0.15 0.08 8 1012.5
20260507174437 12 180 1.6 4.8 0.00 0.15 0.08 8 1012.3
20260507173937 12 166 3.2 4.8 0.00 0.15 0.08 8 1012.0
20260507173437 12 197 1.6 8.0 0.00 0.15 0.08 8 1012.1
20260507172937 12 201 4.8 8.0 0.00 0.15 0.08 8 1012.3
20260507172437 13 171 1.6 8.0 0.00 0.15 0.08 8 1012.2
20260507171937 13 165 3.2 9.7 0.00 0.18 0.08 8 1012.0
20260507171437 13 171 8.0 9.7 0.00 0.18 0.08 8 1012.1
20260507170937 13 136 6.4 9.7 0.00 0.18 0.08 8 1011.9
20260507170437 13 210 6.4 12.9 0.00 0.18 0.08 8 1012.0
20260507165937 13 135 4.8 9.7 0.00 0.15 0.08 8 1011.9
20260507165437 13 145 4.8 8.0 0.00 0.15 0.08 8 1012.0
20260507164937 13 160 3.2 6.4 0.00 0.15 0.08 8 1012.0
20260507164437 13 217 3.2 6.4 0.00 0.15 0.08 8 1012.1
20260507163937 13 216 0.0 3.2 0.00 0.15 0.08 8 1012.3
20260507163437 13 197 0.0 3.2 0.00 0.15 0.08 8 1012.0
20260507162937 13 245 0.0 3.2 0.00 0.15 0.08 8 1012.1
20260507162437 13 194 1.6 3.2 0.00 0.15 0.08 8 1012.3
20260507161937 13 257 1.6 4.8 0.00 0.15 0.08 8 1012.0
20260507161436 13 227 1.6 4.8 0.00 0.15 0.08 8 1012.2
20260507160937 13 250 0.0 6.4 0.00 0.15 0.08 8 1012.0
20260507160436 13 249 1.6 3.2 0.00 0.15 0.08 8 1011.9
20260507155936 13 252 0.0 4.8 0.00 0.15 0.08 8 1011.9
20260507155436 13 241 1.6 3.2 0.00 0.15 0.08 8 1011.7
20260507154936 13 236 0.0 3.2 0.00 0.15 0.08 8 1011.9
20260507154436 13 248 0.0 4.8 0.00 0.15 0.08 8 1011.8
20260507153936 13 249 1.6 6.4 0.00 0.15 0.08 8 1012.0
20260507153436 13 207 1.6 4.8 0.00 0.18 0.08 8 1012.1
20260507152936 13 256 1.6 8.0 0.03 0.18 0.08 8 1012.2
20260507152437 13 224 1.6 4.8 0.05 0.20 0.08 8 1012.2
20260507151936 13 245 1.6 9.7 0.05 0.20 0.08 8 1012.1
20260507151436 13 223 3.2 4.8 0.05 0.23 0.08 8 1012.3
20260507150936 13 231 3.2 8.0 0.05 0.23 0.08 8 1012.2
20260507150436 13 267 1.6 4.8 0.05 0.23 0.08 8 1012.3
20260507145936 13 265 1.6 4.8 0.08 0.15 0.08 8 1012.1
20260507145436 13 251 3.2 8.0 0.08 0.15 0.08 8 1012.3
20260507144936 13 232 3.2 3.2 0.08 0.15 0.08 8 1012.5
20260507144436 13 253 1.6 3.2 0.05 0.15 0.08 8 1012.2
20260507143936 13 280 1.6 6.4 0.05 0.15 0.08 8 1012.2
20260507143436 13 218 1.6 4.8 0.05 0.13 0.05 7 1012.1
20260507142936 13 205 1.6 8.0 0.03 0.10 0.05 7 1012.0
20260507142436 14 267 1.6 8.0 0.03 0.10 0.03 7 1012.0
20260507141936 14 175 1.6 6.4 0.00 0.10 0.03 7 1011.9
20260507141436 14 262 1.6 12.9 0.00 0.08 0.00 7 1012.0
20260507140936 15 259 3.2 8.0 0.00 0.08 0.00 7 1011.9
20260507140436 15 264 1.6 8.0 0.00 0.08 0.00 7 1012.0
20260507135936 15 234 0.0 4.8 0.00 0.08 0.00 7 1012.2
20260507135436 15 244 6.4 9.7 0.00 0.08 0.00 7 1011.9
20260507134936 16 248 8.0 9.7 0.00 0.08 0.00 6 1011.8
20260507134436 16 112 3.2 6.4 0.00 0.08 0.00 6 1012.0
20260507133936 16 260 4.8 9.7 0.00 0.08 0.00 6 1011.7
20260507133436 16 222 3.2 8.0 0.00 0.08 0.00 6 1011.6
20260507132935 16 290 3.2 6.4 0.00 0.08 0.00 6 1011.6
20260507132435 16 220 1.6 9.7 0.00 0.08 0.00 6 1011.3
20260507131935 17 203 4.8 9.7 0.00 0.08 0.00 6 1011.3
20260507131435 17 245 1.6 19.3 0.00 0.08 0.00 6 1011.5
20260507130935 17 230 3.2 14.5 0.00 0.08 0.00 6 1011.5
20260507130435 17 334 3.2 8.0 0.00 0.08 0.00 6 1011.4
20260507125935 17 236 3.2 9.7 0.00 0.08 0.00 6 1011.4
20260507125435 17 229 3.2 9.7 0.00 0.08 0.00 6 1011.4
20260507124935 17 295 8.0 14.5 0.00 0.08 0.00 6 1011.7
20260507124435 17 266 0.0 1.6 0.00 0.08 0.00 6 1011.4
20260507123935 17 265 3.2 6.4 0.00 0.08 0.00 6 1011.9
20260507123435 17 260 4.8 6.4 0.00 0.08 0.00 6 1011.4
20260507122935 17 220 0.0 3.2 0.00 0.08 0.00 6 1011.4
20260507122435 17 287 3.2 8.0 0.00 0.08 0.00 6 1011.5
20260507121935 17 204 0.0 6.4 0.00 0.08 0.00 6 1011.3
20260507121435 17 265 4.8 8.0 0.00 0.08 0.00 6 1011.4
20260507120935 16 299 1.6 9.7 0.00 0.08 0.00 6 1011.6
20260507120435 17 320 0.0 6.4 0.00 0.08 0.00 6 1011.6
20260507115935 17 281 1.6 4.8 0.00 0.08 0.00 6 1011.5
20260507115435 17 252 3.2 4.8 0.00 0.08 0.00 6 1011.5
20260507114935 17 224 0.0 4.8 0.00 0.08 0.00 6 1011.6
20260507114435 17 206 3.2 6.4 0.00 0.08 0.00 6 1011.5
20260507113935 17 286 8.0 9.7 0.00 0.08 0.00 6 1011.4
20260507113435 17 256 1.6 6.4 0.00 0.08 0.00 6 1011.2
20260507112935 17 271 1.6 6.4 0.00 0.08 0.00 6 1011.6
20260507112435 17 226 1.6 4.8 0.00 0.08 0.00 6 1011.5
20260507111935 17 248 3.2 3.2 0.00 0.08 0.00 6 1011.4
20260507111435 17 304 6.4 14.5 0.00 0.08 0.00 6 1011.4
20260507110934 17 249 0.0 16.1 0.00 0.08 0.00 6 1011.3
20260507110434 18 239 3.2 6.4 0.00 0.08 0.00 6 1011.1
20260507105934 18 236 4.8 8.0 0.00 0.08 0.00 6 1011.1
20260507105437 18 249 1.6 6.4 0.00 0.08 0.00 6 1011.6
20260507104934 18 279 3.2 6.4 0.00 0.08 0.00 6 1011.2
20260507104434 18 258 3.2 12.9 0.00 0.08 0.00 6 1011.4
20260507103934 18 232 6.4 12.9 0.00 0.08 0.00 6 1011.1
20260507103434 18 169 3.2 6.4 0.00 0.08 0.00 6 1011.3
20260507102934 18 203 3.2 8.0 0.00 0.08 0.00 6 1011.6
20260507102434 18 197 8.0 16.1 0.00 0.08 0.00 6 1011.4
20260507101934 18 258 3.2 16.1 0.00 0.08 0.00 6 1011.4
20260507101434 18 154 6.4 12.9 0.00 0.08 0.00 6 1011.4
20260507100934 18 111 1.6 4.8 0.00 0.08 0.00 6 1011.4
20260507100434 18 223 3.2 9.7 0.00 0.08 0.00 6 1011.1
20260507095934 18 158 12.9 19.3 0.00 0.08 0.00 6 1011.6
20260507095434 17 160 3.2 4.8 0.00 0.08 0.00 6 1011.6
20260507094934 17 255 6.4 9.7 0.00 0.08 0.00 6 1011.6
20260507094434 17 184 6.4 8.0 0.00 0.08 0.00 6 1011.4
20260507093934 17 242 8.0 12.9 0.00 0.08 0.00 6 1011.5
20260507093434 17 187 1.6 8.0 0.00 0.08 0.00 6 1011.3
20260507092934 17 209 0.0 8.0 0.00 0.08 0.00 6 1011.4
20260507092434 17 239 1.6 6.4 0.00 0.08 0.00 6 1011.4
20260507091934 16 165 3.2 6.4 0.00 0.08 0.00 6 1011.6
20260507091434 16 292 3.2 12.9 0.00 0.08 0.00 6 1011.3
20260507090934 16 164 4.8 16.1 0.00 0.08 0.00 7 1011.3
20260507090434 16 236 4.8 6.4 0.00 0.08 0.00 7 1011.4
20260507085934 16 264 3.2 9.7 0.00 0.08 0.00 7 1011.7
20260507085434 16 170 11.3 14.5 0.00 0.08 0.00 7 1011.5
20260507084934 16 354 6.4 9.7 0.00 0.08 0.00 7 1011.4
20260507084434 16 283 9.7 17.7 0.00 0.08 0.00 7 1011.4
20260507083934 15 237 1.6 8.0 0.00 0.08 0.00 7 1011.5
20260507083433 15 169 9.7 14.5 0.00 0.08 0.00 7 1011.2
20260507082933 15 234 3.2 12.9 0.00 0.08 0.00 7 1011.5
20260507082433 15 279 4.8 6.4 0.00 0.08 0.00 7 1011.7
20260507081933 15 259 4.8 9.7 0.00 0.08 0.00 7 1011.5
20260507081433 15 280 6.4 16.1 0.00 0.08 0.00 7 1011.3
20260507080933 15 267 0.0 6.4 0.00 0.08 0.00 7 1011.3
20260507080433 15 248 0.0 4.8 0.00 0.08 0.00 7 1011.2
20260507075933 15 266 3.2 6.4 0.00 0.08 0.00 7 1011.1
20260507075433 15 277 3.2 6.4 0.00 0.08 0.00 7 1011.1
20260507074933 15 271 4.8 8.0 0.00 0.08 0.00 7 1011.1
20260507074433 15 267 0.0 3.2 0.00 0.08 0.00 7 1011.2
20260507073933 15 262 0.0 6.4 0.00 0.08 0.00 7 1011.3
20260507073433 15 304 6.4 9.7 0.00 0.08 0.00 7 1011.0
20260507072933 15 254 3.2 9.7 0.00 0.08 0.00 7 1011.1
20260507072433 15 260 6.4 12.9 0.00 0.08 0.00 7 1011.0
20260507071933 15 235 3.2 8.0 0.00 0.08 0.00 7 1010.9
20260507071433 15 221 3.2 9.7 0.00 0.08 0.00 7 1010.9
20260507070933 15 257 6.4 12.9 0.00 0.08 0.00 7 1011.0
20260507070433 15 236 6.4 9.7 0.00 0.08 0.00 7 1010.7
20260507065933 14 241 6.4 14.5 0.00 0.08 0.00 7 1010.9
20260507065433 14 242 8.0 16.1 0.00 0.08 0.00 7 1010.9
20260507064933 14 197 4.8 19.3 0.00 0.08 0.00 7 1010.9
20260507064433 14 327 8.0 9.7 0.00 0.08 0.00 7 1010.7
20260507063933 14 298 3.2 6.4 0.00 0.08 0.00 7 1010.9
20260507063433 13 280 6.4 8.0 0.00 0.08 0.00 7 1010.9
20260507062933 13 256 6.4 6.4 0.00 0.08 0.00 7 1010.8
20260507062433 13 206 3.2 4.8 0.00 0.08 0.00 7 1010.9
20260507061933 13 239 3.2 8.0 0.00 0.08 0.00 7 1010.8
20260507061433 13 239 4.8 6.4 0.00 0.08 0.00 7 1011.0
20260507060933 13 216 3.2 6.4 0.00 0.08 0.00 7 1010.7
20260507060433 13 283 3.2 8.0 0.00 0.08 0.00 7 1010.7
20260507055932 13 273 3.2 6.4 0.00 0.08 0.00 7 1010.7
20260507055432 13 221 0.0 6.4 0.00 0.08 0.00 7 1010.7
20260507054932 13 265 0.0 4.8 0.00 0.08 0.00 7 1010.7
20260507054432 13 156 3.2 6.4 0.00 0.08 0.00 7 1010.7
20260507053932 13 244 1.6 4.8 0.00 0.08 0.00 7 1010.5
20260507053433 13 193 1.6 4.8 0.00 0.08 0.00 7 1010.7
20260507052932 13 206 1.6 9.7 0.00 0.08 0.00 7 1010.5
20260507052432 13 133 3.2 8.0 0.00 0.08 0.00 7 1010.4
20260507051932 13 257 3.2 9.7 0.00 0.08 0.00 7 1010.4
20260507051432 13 266 3.2 12.9 0.00 0.08 0.00 7 1010.4
20260507050432 13 242 6.4 8.0 0.00 0.08 0.00 7 1010.1
20260507045932 13 260 3.2 12.9 0.00 0.08 0.00 7 1010.3
20260507045432 13 211 1.6 8.0 0.00 0.08 0.00 7 1010.3
20260507044932 13 212 6.4 8.0 0.00 0.08 0.00 7 1010.2
20260507043932 12 261 3.2 9.7 0.00 0.08 0.00 7 1010.0
20260507043432 13 261 3.2 16.1 0.00 0.08 0.00 7 1009.6
20260507042932 13 260 3.2 12.9 0.00 0.08 0.00 7 1009.8
20260507042432 13 236 6.4 19.3 0.00 0.08 0.00 7 1009.6
20260507041932 13 226 8.0 16.1 0.00 0.08 0.00 7 1009.5
20260507041432 13 227 8.0 12.9 0.00 0.08 0.00 7 1009.4
20260507040932 12 236 3.2 22.5 0.00 0.08 0.00 8 1009.4
20260507040432 12 248 8.0 16.1 0.00 0.08 0.00 8 1009.5
20260507035932 12 257 12.9 22.5 0.00 0.08 0.00 8 1009.3
20260507035432 12 232 9.7 14.5 0.00 0.08 0.00 8 1009.2
20260507034932 12 211 8.0 22.5 0.00 0.08 0.00 8 1009.2
20260507034431 12 230 8.0 14.5 0.00 0.08 0.00 8 1009.4
20260507033931 12 294 6.4 14.5 0.00 0.08 0.00 8 1009.4
20260507033431 12 264 11.3 17.7 0.00 0.08 0.00 8 1009.3
20260507032931 12 232 6.4 14.5 0.00 0.08 0.00 8 1009.3
20260507032431 13 243 3.2 16.1 0.00 0.08 0.00 8 1009.3
20260507031931 13 226 12.9 22.5 0.00 0.08 0.00 7 1009.5
20260507031431 13 250 9.7 17.7 0.00 0.08 0.00 7 1009.3
20260507030931 13 201 6.4 17.7 0.00 0.08 0.00 7 1009.1
20260507030431 13 312 8.0 16.1 0.00 0.08 0.00 7 1009.3
20260507025931 13 253 6.4 20.9 0.00 0.08 0.00 7 1009.3
20260507025431 13 255 6.4 17.7 0.00 0.08 0.00 7 1009.3
20260507024931 13 215 4.8 19.3 0.00 0.08 0.00 7 1009.1
20260507024431 13 307 9.7 16.1 0.00 0.08 0.00 7 1009.1
20260507023931 13 238 9.7 20.9 0.00 0.08 0.00 7 1009.3
20260507023431 13 254 6.4 19.3 0.00 0.08 0.00 7 1009.1
20260507022931 13 326 8.0 19.3 0.00 0.08 0.00 7 1009.1
20260507022431 13 189 8.0 19.3 0.00 0.08 0.00 7 1009.1
20260507021931 13 222 8.0 19.3 0.00 0.08 0.00 7 1009.0
20260507021431 14 283 4.8 19.3 0.00 0.08 0.00 7 1008.8
20260507020931 14 223 8.0 19.3 0.00 0.08 0.00 7 1009.1
20260507020431 14 264 11.3 19.3 0.00 0.08 0.00 7 1009.3
20260507015931 14 288 9.7 16.1 0.00 0.08 0.00 7 1008.8
20260507015431 14 290 6.4 22.5 0.00 0.08 0.00 7 1009.1
20260507014931 14 249 6.4 17.7 0.00 0.08 0.00 7 1009.0
20260507014431 13 251 6.4 16.1 0.00 0.08 0.00 7 1008.9
20260507013931 13 302 8.0 16.1 0.00 0.08 0.00 7 1009.2
20260507013431 13 259 8.0 20.9 0.00 0.08 0.00 7 1009.1
20260507012931 13 244 8.0 19.3 0.00 0.08 0.00 7 1009.3
20260507012431 14 308 8.0 17.7 0.00 0.08 0.00 7 1009.3
20260507011931 14 134 4.8 19.3 0.00 0.08 0.00 7 1009.2
20260507011431 14 239 12.9 17.7 0.00 0.08 0.00 7 1009.4
20260507010931 14 235 12.9 17.7 0.00 0.08 0.00 7 1009.1
20260507010431 14 273 6.4 19.3 0.00 0.08 0.00 7 1009.1
20260507005930 14 263 4.8 12.9 0.00 0.08 0.00 7 1009.2
20260507005430 14 279 6.4 17.7 0.00 0.08 0.00 7 1009.1
20260507004930 14 238 6.4 12.9 0.00 0.08 0.00 7 1009.2
20260507004431 14 247 4.8 17.7 0.00 0.08 0.00 7 1009.1
20260507003930 14 284 4.8 12.9 0.00 0.08 0.00 7 1009.3
20260507003430 14 243 3.2 16.1 0.00 0.08 0.00 7 1009.3
20260507002930 14 273 6.4 24.1 0.00 0.08 0.00 7 1009.4
20260507002430 14 277 1.6 14.5 0.00 0.08 0.00 7 1009.3
20260507001930 14 259 3.2 12.9 0.00 0.08 0.00 7 1009.5
20260507001430 15 223 14.5 19.3 0.00 0.08 0.00 7 1009.5
20260507000930 15 276 3.2 20.9 0.00 0.08 0.00 7 1009.5
20260507000430 15 253 3.2 14.5 0.00 0.08 0.00 7 1009.7
20260506235930 14 287 6.4 14.5 0.00 0.08 0.00 7 1009.6
20260506235430 14 188 9.7 16.1 0.00 0.08 0.00 7 1009.9
20260506234930 14 236 3.2 6.4 0.00 0.08 0.00 7 1009.7
20260506234430 14 245 4.8 17.7 0.00 0.08 0.00 7 1009.8
20260506233930 14 209 8.0 12.9 0.00 0.08 0.00 7 1009.7
20260506233430 14 269 6.4 8.0 0.00 0.08 0.00 7 1009.8
20260506232930 14 246 1.6 12.9 0.00 0.08 0.00 8 1010.0
20260506232430 13 182 1.6 12.9 0.00 0.08 0.00 8 1009.8
20260506231930 13 254 9.7 17.7 0.00 0.08 0.00 8 1010.3
20260506231430 13 251 3.2 17.7 0.00 0.08 0.00 8 1010.0
20260506230930 13 286 6.4 17.7 0.00 0.08 0.00 8 1010.1
20260506230430 13 203 11.3 24.1 0.00 0.08 0.00 8 1010.4
20260506225930 13 210 8.0 19.3 0.00 0.08 0.00 8 1010.1
20260506225430 14 175 9.7 16.1 0.00 0.05 0.00 7 1009.9
20260506224930 14 175 12.9 29.0 0.00 0.05 0.00 7 1009.9
20260506224430 15 187 9.7 20.9 0.00 0.05 0.00 7 1010.0
20260506223930 15 272 3.2 19.3 0.00 0.05 0.00 7 1009.9
20260506223430 15 142 3.2 20.9 0.00 0.05 0.00 7 1009.7
20260506222930 15 199 9.7 17.7 0.00 0.05 0.00 7 1009.4
20260506222429 15 11 4.8 19.3 0.00 0.05 0.00 7 1009.2
20260506221929 15 231 4.8 19.3 0.00 0.05 0.00 7 1008.8
20260506221429 15 244 8.0 19.3 0.00 0.05 0.00 7 1008.8
20260506220929 15 236 6.4 24.1 0.00 0.05 0.00 7 1008.9
20260506220429 15 153 4.8 9.7 0.00 0.05 0.00 7 1009.2
20260506215929 15 279 1.6 16.1 0.00 0.05 0.05 7 1009.0
20260506215429 15 240 4.8 12.9 0.00 0.05 0.05 7 1009.0
20260506214929 15 259 6.4 9.7 0.00 0.05 0.05 7 1008.8
20260506214429 15 271 6.4 9.7 0.00 0.05 0.05 7 1008.7
20260506213929 15 251 3.2 16.1 0.00 0.05 0.05 7 1008.7
20260506213429 16 247 9.7 17.7 0.00 0.05 0.05 7 1008.8
20260506212929 16 231 8.0 17.7 0.00 0.05 0.05 7 1008.8
20260506212429 16 245 9.7 16.1 0.00 0.05 0.05 7 1009.0
20260506211929 16 231 8.0 12.9 0.00 0.05 0.05 7 1008.7
20260506211429 15 286 9.7 24.1 0.00 0.05 0.05 7 1008.9
20260506210929 15 260 6.4 16.1 0.00 0.08 0.05 7 1008.7